WORLDVIEW 2 DEB, 41742

Orbit data source: Space-Track

WORLDVIEW 2 DEB, 41742 is space debris in SSO originally from a launch on Thu, 08 Oct 2009 UTC launched from the Air Force Western Test Range (AFWTR). Debris objects in space refer to the collection of defunct objects orbiting the Earth. Examples of debris include non-operational satellites, rocket bodies, and fragments generated from explosions, collisions, or faulty payload assembly.

Loading next visibility...
Identifier
41742, 2009-055K
Orbit
SSO
Country
Flag of USUS
Related business
Manufacturer
Ball
Mission
Spacecraft
Bus & Motor
Unknown
Mass
Unknown
Launch date (UTC)
2009-10-08 (16 years ago)
Launch vehicle
Unknown
Launch site
Air Force Western Test Range (AFWTR)
Object type
Payload
Rocket body
Debris
Shape & HBR
Unknown
Radar Cross Section
Small (<0.1 m²)

Expand to show TLE details & history
Last TLE update: 15 hours ago

TLE from 15 hours ago
0 WORLDVIEW 2 DEB
1 41742U 09055K   25260.20673029  .00003432  00000-0  79773-3 0  9999
2 41742  98.3600 348.5833 0006671 332.4247  27.6595 14.55556262482352
Epoch: 2025-09-17T04:57Z
TLE epoch observation values (Epoch: 2025-09-17T04:57:41.497Z)
Latitude
-0.00004°
Longitude
-82.2256°
Altitude
706.346 km
Speed
7.505 km/s
True Right ascension
23h 14m 19s
True Declination
0° 00' 00"
Sunlit
Object was in full shadow at epoch
Visualization orbit readout
Latitude
Unknown
Longitude
Unknown
Altitude
Unknown
Speed
Unknown
Apparent Right ascension
Unknown
Apparent Declination
Unknown
Sunlit
N/A
Visualization observer readout
Local Sidereal Time
12:34:27
Azimuth
Unknown
Elevation
Unknown
Doppler factor
Unknown
Orbital elements
Apogee altitude
709.378 km
Perigee altitude
699.929 km
Semi-major axis
7,082.79 km
Eccentricity
0.00067
Inclination
98.36°
RAAN
348.5833°
Arg. of periapsis
332.4247°
True anomaly
27.69501°
Mean anomaly
27.6595°
Eccentric anomaly
27.67725°
Mean motion
3.64113 °/min
Orbital period
98.87 mins
BSTAR
0.00079773
Loading maneuver chart data...
Computing Atmospheric mass density...

Documentation

Showing up to 5 results
|